• In Belarus
  • List of Countries
  • For 7 days
  • Water Temperature
  • Satellite Maps
  • Weather Map
  • Weather Widgets
  • user-avatar
    Login

    Hourly Weather Batina

    Today, 23 May, Wednesday

    Time Temperature Precipitation Wind Pressure Humidity
    00:00 +15°C° 0 mm 1 mps 672 mmHg 75%
    01:00 +15°C° 0 mm 1 mps 671 mmHg 75%
    02:00 +15°C° 0 mm 1 mps 671 mmHg 76%
    03:00 +14°C° 0 mm 1 mps 671 mmHg 76%
    04:00 +15°C° 0 mm 1 mps 672 mmHg 70%
    05:00 +16°C° 0 mm 1 mps 672 mmHg 64%
    06:00 +18°C° 0 mm 1 mps 673 mmHg 60%
    07:00 +18°C° 0 mm 2 mps 673 mmHg 53%
    08:00 +19°C° 0 mm 2 mps 673 mmHg 46%
    09:00 +21°C° 0 mm 2 mps 674 mmHg 39%
    10:00 +23°C° 0 mm 2 mps 674 mmHg 35%
    11:00 +24°C° 0 mm 3 mps 674 mmHg 31%
    12:00 +25°C° 0 mm 3 mps 674 mmHg 28%
    13:00 +25°C° 0 mm 3 mps 674 mmHg 27%
    14:00 +26°C° 0 mm 3 mps 674 mmHg 26%
    15:00 +26°C° 0 mm 3 mps 674 mmHg 25%
    16:00 +25°C° 0 mm 3 mps 674 mmHg 28%
    17:00 +25°C° 0 mm 3 mps 674 mmHg 31%
    18:00 +24°C° 0 mm 3 mps 674 mmHg 34%
    19:00 +23°C° 0 mm 2 mps 674 mmHg 40%
    20:00 +21°C° 0 mm 2 mps 674 mmHg 45%
    21:00 +21°C° 0 mm 1 mps 674 mmHg 50%
    22:00 +21°C° 0 mm 1 mps 674 mmHg 51%
    23:00 +20°C° 0 mm 1 mps 674 mmHg 52%

    Tomorrow, 24 May, Thursday

    Time Temperature Precipitation Wind Pressure Humidity
    00:00 +20°C° 0 mm 1 mps 673 mmHg 53%
    01:00 +19°C° 0 mm 1 mps 673 mmHg 53%
    02:00 +19°C° 0 mm 1 mps 673 mmHg 52%
    03:00 +19°C° 0 mm 1 mps 673 mmHg 52%
    04:00 +20°C° 0 mm 1 mps 673 mmHg 49%
    05:00 +21°C° 0 mm 1 mps 673 mmHg 46%
    06:00 +21°C° 0 mm 2 mps 673 mmHg 42%
    07:00 +23°C° 0 mm 2 mps 674 mmHg 37%
    08:00 +25°C° 0 mm 2 mps 674 mmHg 33%
    09:00 +26°C° 0 mm 3 mps 675 mmHg 28%
    10:00 +27°C° 0 mm 3 mps 675 mmHg 26%
    11:00 +28°C° 0 mm 3 mps 675 mmHg 24%
    12:00 +29°C° 0 mm 3 mps 675 mmHg 22%
    13:00 +29°C° 0 mm 3 mps 674 mmHg 23%
    14:00 +29°C° 0 mm 3 mps 674 mmHg 23%
    15:00 +29°C° 0 mm 3 mps 674 mmHg 23%
    16:00 +29°C° 0 mm 3 mps 674 mmHg 25%
    17:00 +28°C° 0 mm 3 mps 673 mmHg 28%
    18:00 +27°C° 0 mm 3 mps 673 mmHg 30%
    19:00 +26°C° 0 mm 2 mps 673 mmHg 34%
    20:00 +25°C° 0 mm 2 mps 673 mmHg 37%
    21:00 +24°C° 0 mm 1 mps 673 mmHg 41%
    22:00 +24°C° 0 mm 1 mps 673 mmHg 41%
    23:00 +23°C° 0 mm 2 mps 672 mmHg 42%

    Day after tomorrow, 25 May, Friday

    Time Temperature Precipitation Wind Pressure Humidity
    00:00 +23°C° 0 mm 2 mps 672 mmHg 42%
    01:00 +21°C° 0 mm 2 mps 672 mmHg 44%
    02:00 +21°C° 0 mm 2 mps 671 mmHg 45%
    03:00 +21°C° 0 mm 1 mps 671 mmHg 47%
    04:00 +22°C° 0 mm 1 mps 671 mmHg 44%
    05:00 +23°C° 0 mm 2 mps 672 mmHg 42%
    06:00 +24°C° 0 mm 2 mps 672 mmHg 39%
    07:00 +25°C° 0 mm 2 mps 673 mmHg 34%
    08:00 +27°C° 0 mm 3 mps 673 mmHg 29%
    09:00 +28°C° 0 mm 4 mps 674 mmHg 24%
    10:00 +29°C° 0 mm 4 mps 674 mmHg 22%
    11:00 +30°C° 0 mm 5 mps 674 mmHg 20%
    12:00 +32°C° 0 mm 6 mps 674 mmHg 18%
    13:00 +32°C° 0 mm 6 mps 673 mmHg 17%
    14:00 +32°C° 0 mm 6 mps 673 mmHg 17%
    15:00 +33°C° 0 mm 5 mps 673 mmHg 16%
    16:00 +32°C° 0 mm 5 mps 672 mmHg 18%
    17:00 +30°C° 0 mm 5 mps 672 mmHg 20%
    18:00 +29°C° 0 mm 4 mps 672 mmHg 22%
    19:00 +28°C° 0 mm 4 mps 672 mmHg 24%
    20:00 +27°C° 0 mm 3 mps 672 mmHg 27%
    21:00 +25°C° 0 mm 2 mps 671 mmHg 29%
    22:00 +25°C° 0 mm 2 mps 671 mmHg 29%
    23:00 +25°C° 0 mm 2 mps 671 mmHg 30%

    26 May, Saturday

    Time Temperature Precipitation Wind Pressure Humidity
    00:00 +24°C° 0 mm 2 mps 671 mmHg 30%
    01:00 +24°C° 0 mm 2 mps 671 mmHg 31%
    02:00 +24°C° 0 mm 2 mps 671 mmHg 31%
    03:00 +23°C° 0 mm 2 mps 671 mmHg 32%
    04:00 +24°C° 0 mm 3 mps 671 mmHg 33%
    05:00 +24°C° 0 mm 3 mps 671 mmHg 33%
    06:00 +23°C° 0 mm 4 mps 672 mmHg 34%
    07:00 +26°C° 0 mm 5 mps 672 mmHg 30%
    08:00 +28°C° 0 mm 7 mps 673 mmHg 26%
    09:00 +29°C° 0 mm 9 mps 673 mmHg 22%
    10:00 +31°C° 0 mm 8 mps 673 mmHg 21%
    11:00 +32°C° 0 mm 7 mps 673 mmHg 20%
    12:00 +33°C° 0 mm 7 mps 674 mmHg 19%
    13:00 +33°C° 0 mm 6 mps 673 mmHg 19%
    14:00 +33°C° 0 mm 6 mps 673 mmHg 19%
    15:00 +33°C° 0 mm 5 mps 673 mmHg 19%
    16:00 +32°C° 0 mm 5 mps 673 mmHg 21%
    17:00 +30°C° 0 mm 4 mps 672 mmHg 24%
    18:00 +29°C° 0 mm 3 mps 672 mmHg 26%
    19:00 +28°C° 0 mm 3 mps 672 mmHg 29%
    20:00 +27°C° 0 mm 2 mps 672 mmHg 32%
    21:00 +26°C° 0 mm 2 mps 672 mmHg 34%
    22:00 +25°C° 0.1 mm 2 mps 672 mmHg 37%
    23:00 +25°C° 0.1 mm 1 mps 672 mmHg 39%

    27 May, Sunday

    Time Temperature Precipitation Wind Pressure Humidity
    00:00 +24°C° 0.1 mm 1 mps 672 mmHg 41%
    01:00 +24°C° 0 mm 1 mps 672 mmHg 42%
    02:00 +23°C° 0 mm 1 mps 672 mmHg 42%
    03:00 +23°C° 0 mm 1 mps 671 mmHg 43%
    04:00 +24°C° 0.1 mm 1 mps 672 mmHg 42%
    05:00 +24°C° 0.1 mm 2 mps 672 mmHg 41%
    06:00 +25°C° 0.1 mm 2 mps 673 mmHg 40%
    07:00 +26°C° 0.2 mm 2 mps 673 mmHg 37%
    08:00 +27°C° 0.2 mm 2 mps 674 mmHg 33%
    09:00 +28°C° 0.2 mm 2 mps 674 mmHg 30%
    10:00 +29°C° 0 mm 3 mps 674 mmHg 28%
    11:00 +30°C° 0 mm 3 mps 674 mmHg 26%
    12:00 +32°C° 0 mm 4 mps 674 mmHg 23%
    13:00 +32°C° 0 mm 4 mps 674 mmHg 22%
    14:00 +33°C° 0 mm 5 mps 673 mmHg 21%
    15:00 +33°C° 0 mm 5 mps 673 mmHg 20%
    16:00 +32°C° 0 mm 5 mps 672 mmHg 22%
    17:00 +32°C° 0 mm 5 mps 672 mmHg 23%
    18:00 +30°C° 0 mm 5 mps 671 mmHg 25%
    19:00 +28°C° 0 mm 5 mps 671 mmHg 27%
    20:00 +27°C° 0 mm 4 mps 671 mmHg 29%
    21:00 +26°C° 0 mm 3 mps 672 mmHg 31%
    22:00 +26°C° 0 mm 3 mps 671 mmHg 32%
    23:00 +25°C° 0 mm 4 mps 671 mmHg 33%

    28 May, Monday

    Time Temperature Precipitation Wind Pressure Humidity
    00:00 +25°C° 0 mm 4 mps 670 mmHg 34%
    01:00 +23°C° 0 mm 4 mps 670 mmHg 35%
    02:00 +24°C° 0 mm 3 mps 670 mmHg 36%
    03:00 +22°C° 0 mm 3 mps 670 mmHg 37%
    04:00 +22°C° 0 mm 3 mps 670 mmHg 37%
    05:00 +24°C° 0 mm 3 mps 670 mmHg 37%
    06:00 +24°C° 0 mm 3 mps 671 mmHg 37%
    07:00 +26°C° 0 mm 6 mps 671 mmHg 31%
    08:00 +28°C° 0 mm 8 mps 671 mmHg 25%
    09:00 +31°C° 0 mm 10 mps 672 mmHg 19%
    10:00 +32°C° 0 mm 11 mps 672 mmHg 18%
    11:00 +33°C° 0 mm 12 mps 671 mmHg 17%
    12:00 +34°C° 0 mm 13 mps 671 mmHg 16%
    13:00 +34°C° 0 mm 12 mps 671 mmHg 17%
    14:00 +34°C° 0 mm 12 mps 670 mmHg 18%
    15:00 +33°C° 0 mm 11 mps 670 mmHg 19%
    16:00 +33°C° 0 mm 10 mps 670 mmHg 21%
    17:00 +32°C° 0 mm 9 mps 670 mmHg 22%
    18:00 +31°C° 0 mm 8 mps 669 mmHg 23%
    19:00 +29°C° 0 mm 7 mps 669 mmHg 27%
    20:00 +27°C° 0 mm 7 mps 669 mmHg 30%
    21:00 +26°C° 0 mm 6 mps 669 mmHg 34%
    22:00 +25°C° 0 mm 5 mps 669 mmHg 39%
    23:00 +23°C° 0 mm 5 mps 669 mmHg 45%
    Show more